SCD 1 1 22490U 93009B 26106.66863176 .00000371 00000+0 50395-4 0 9992 2 22490 24.9687 227.4091 0041772 206.6883 176.1876 14.46092423752201 TECHSAT 1B (GO-32) 1 25397U 98043D 26106.53126105 .00000027 00000+0 31900-4 0 9993 2 25397 99.0059 97.7412 0002095 58.8801 301.2583 14.24416045442559 SCD 2 1 25504U 98060A 26106.67074213 .00000313 00000+0 36561-4 0 9995 2 25504 24.9948 91.5207 0016723 192.1562 328.9834 14.45501986451418 DLR-TUBSAT 1 25757U 99029B 26106.49844998 .00000030 00000+0 19202-4 0 9995 2 25757 98.6691 99.9780 0014304 173.0730 187.0664 14.52410802424292 TERRA 1 25994U 99068A 26106.67455338 .00000228 00000+0 55515-4 0 9993 2 25994 97.9518 158.6431 0003554 75.0470 82.3905 14.61053770400621 MAROC-TUBSAT 1 27004U 01056D 26106.73330911 -.00000029 00000+0 20650-4 0 9995 2 27004 99.8053 282.4390 0019145 301.5411 81.5066 13.70259872217776 AQUA 1 27424U 02022A 26106.68935522 .00000486 00000+0 10657-3 0 9999 2 27424 98.4234 74.7653 0001824 105.5984 67.1742 14.62060511274286 IRS-P6 (RESOURCESAT-1) 1 28051U 03046A 26106.72260416 .00000213 00000+0 84935-4 0 9990 2 28051 98.1976 146.2295 0064426 165.5627 327.7802 14.36138970171708 SHIYAN-1 (SY-1) 1 28220U 04012A 26106.17136695 .00007367 00000+0 23986-3 0 9997 2 28220 97.8717 180.2871 0005016 227.1872 132.8947 15.32174826201593 AURA 1 28376U 04026A 26106.70214904 .00000482 00000+0 10762-3 0 9992 2 28376 98.3370 62.6693 0001613 90.3319 269.8067 14.61232212157236 IRS-P5 (CARTOSAT-1) 1 28649U 05017A 26106.53634154 .00000821 00000+0 88565-4 0 9994 2 28649 97.5367 132.3897 0000611 102.1854 257.9433 14.90890130134635 SINAH 1 1 28893U 05043D 26106.68464375 .00000190 00000+0 45450-4 0 9991 2 28893 98.2759 240.6776 0015727 107.9632 252.3286 14.64114174 91522 RESURS-DK 1 1 29228U 06021A 26106.48764551 .00001158 00000+0 71672-4 0 9998 2 29228 69.9296 139.2363 0002530 1.9609 358.1567 15.12951858 93246 ARIRANG-2 (KOMPSAT-2) 1 29268U 06031A 26106.73817163 .00000227 00000+0 51236-4 0 9999 2 29268 97.8307 294.1566 0012987 269.1189 147.7123 14.64620715 52489 LAPAN-TUBSAT 1 29709U 07001A 26106.70612088 .00000115 00000+0 19777-4 0 9993 2 29709 98.1343 104.5490 0013081 31.6619 328.5380 14.85886191 42027 HAIYANG-1B 1 31113U 07010A 26106.54487434 .00000052 00000+0 35525-4 0 9991 2 31113 98.3472 90.7919 0014133 28.9018 331.2946 14.31011458991813 COSMO-SKYMED 1 1 31598U 07023A 26106.77232461 .00001115 00000+0 10262-3 0 9996 2 31598 97.8877 298.1180 0001298 85.9326 274.2043 14.96803552 20609 TERRASAR-X 1 31698U 07026A 26105.41925142 -.00000064 00000+0 16024-6 0 9993 2 31698 97.4452 114.0204 0001828 81.1580 278.9862 15.19152539 43699 WORLDVIEW-1 (WV-1) 1 32060U 07041A 26106.58656243 .00003769 00000+0 15757-3 0 9999 2 32060 97.3870 227.1955 0001128 254.7775 105.3338 15.24206822 33491 YAOGAN-3 1 32289U 07055A 26106.70725979 .00001595 00000+0 16886-3 0 9993 2 32289 97.8217 137.1866 0001384 90.7689 269.3687 14.90548195996705 COSMO-SKYMED 2 1 32376U 07059A 26106.72647022 .00000227 00000+0 35084-4 0 9991 2 32376 97.8883 291.2143 0001388 91.5031 268.6341 14.82152091992897 RADARSAT-2 1 32382U 07061A 26106.74332727 -.00000118 00000+0 -28939-4 0 9998 2 32382 98.5801 114.5488 0001274 85.0739 275.0589 14.29980134957174 CARTOSAT-2A 1 32783U 08021A 26106.69190993 .00000291 00000+0 46019-4 0 9990 2 32783 97.7702 157.4837 0010767 317.4531 42.5845 14.79161710969714 HUANJING 1A (HJ-1A) 1 33320U 08041A 26106.73686241 .00000919 00000+0 11671-3 0 9993 2 33320 97.6661 94.9671 0018726 345.6553 14.4128 14.83846592949292 HUANJING 1B (HJ-1B) 1 33321U 08041B 26106.74639341 .00000761 00000+0 98362-4 0 9992 2 33321 97.6503 98.3302 0037328 27.3721 332.9450 14.83204283949300 GEOEYE 1 1 33331U 08042A 26106.66896209 .00000243 00000+0 54563-4 0 9993 2 33331 98.1256 181.3753 0002952 246.5513 113.5379 14.64667547941146 THEOS 1 33396U 08049A 26106.67211028 -.00000085 00000+0 -20104-4 0 9992 2 33396 98.5631 165.9376 0001284 94.3339 265.7984 14.20123602909236 COSMO-SKYMED 3 1 33412U 08054A 26106.71439098 .00001350 00000+0 95444-4 0 9994 2 33412 97.8372 324.2577 0017397 112.2241 248.0833 15.06560315947685 YAOGAN-4 1 33446U 08061A 26106.57085755 .00000575 00000+0 77226-4 0 9996 2 33446 97.9282 40.5521 0012796 272.1366 87.8382 14.83084044936536 GOSAT (IBUKI) 1 33492U 09002A 26106.56993801 .00000399 00000+0 78904-4 0 9990 2 33492 98.0809 218.4469 0001142 105.9620 254.1711 14.67541750922422 DEIMOS-1 1 35681U 09041A 26106.66589365 .00000086 00000+0 19801-4 0 9996 2 35681 97.7320 266.5859 0002475 60.6642 299.4815 14.75170771897817 DUBAISAT-1 1 35682U 09041B 26106.63094057 .00000634 00000+0 10180-3 0 9992 2 35682 97.9949 240.5997 0009085 267.9356 92.0812 14.75007821896021 OCEANSAT-2 1 35931U 09051A 26106.72142282 -.00000217 00000+0 -12289-3 0 9995 2 35931 98.2311 99.7206 0016697 50.5446 309.7195 13.99653131870733 WORLDVIEW-2 (WV-2) 1 35946U 09055A 26106.65073233 .00000069 00000+0 37380-4 0 9999 2 35946 98.4699 180.9682 0005215 54.7957 305.3718 14.37925642866806 SMOS 1 36036U 09059A 26106.75469807 .00000136 00000+0 57310-4 0 9991 2 36036 98.4436 294.9856 0001174 95.2039 264.9283 14.39740836864612 YAOGAN-7 1 36110U 09069A 26106.54845086 .00000289 00000+0 47382-4 0 9996 2 36110 98.0149 352.7728 0023394 236.4403 123.4574 14.77948410880525 TANDEM-X 1 36605U 10030A 26105.48511850 -.00000095 00000+0 -13240-5 0 9990 2 36605 97.4461 114.0851 0001857 96.2128 263.9318 15.19152466877129 CARTOSAT-2B 1 36795U 10035A 26106.69173568 .00000316 00000+0 50288-4 0 9995 2 36795 98.0021 157.6149 0012042 35.7335 324.4679 14.78652760850767 YAOGAN-10 1 36834U 10038A 26106.72000358 .00001345 00000+0 16344-3 0 9999 2 36834 97.9034 130.6082 0001508 86.1384 40.6430 14.85161076848086 COSMO-SKYMED 4 1 37216U 10060A 26106.67162668 .00000680 00000+0 91980-4 0 9997 2 37216 97.8880 291.1614 0001490 79.9840 280.1541 14.82149395835458 RESOURCESAT-2 1 37387U 11015A 26106.71530221 -.00000232 00000+0 -85591-4 0 9992 2 37387 98.7686 174.5710 0012393 77.4129 282.8434 14.21603462777446 HAIYANG-2A 1 37781U 11043A 26106.78023825 -.00000035 00000+0 94483-5 0 9996 2 37781 99.3421 110.7276 0005066 208.4994 151.5879 13.76360269738213 RASAT 1 37791U 11044D 26106.71950343 .00000478 00000+0 91393-4 0 9991 2 37791 98.0549 199.0650 0021341 30.8138 122.4958 14.68108700784160 SRMSAT 1 37841U 11058D 26106.23675398 .00000363 00000+0 52901-4 0 9998 2 37841 19.9721 74.4374 0011613 241.6849 237.7724 14.11560608749058 PLEIADES 1A 1 38012U 11076F 26106.73376843 .00000227 00000+0 58801-4 0 9991 2 38012 98.1998 182.6558 0001214 73.7984 23.5537 14.58532187763039 ZIYUAN 1-02C (ZY 1-02C) 1 38038U 11079A 26106.73218088 .00000390 00000+0 14254-3 0 9992 2 38038 98.4114 175.3161 0007472 125.4159 35.9728 14.38163204750370 ARIRANG-3 (KOMPSAT-3) 1 38338U 12025B 26106.71770272 .00000250 00000+0 58885-4 0 9997 2 38338 98.1123 65.2598 0004430 319.8283 40.2590 14.62150831742364 EXACTVIEW-1 (ADS-1B) 1 38709U 12039C 26106.31019294 .00000061 00000+0 45917-4 0 9992 2 38709 98.9685 222.3292 0010641 355.6038 4.5045 14.24965759713896 SPOT 6 1 38755U 12047A 26106.66157497 .00000363 00000+0 87987-4 0 9996 2 38755 98.2160 174.6794 0001308 84.5022 275.6326 14.58517917724087 PLEIADES 1B 1 39019U 12068A 26106.68115613 .00000316 00000+0 77728-4 0 9999 2 39019 98.1969 182.5736 0001138 80.6008 279.5320 14.58558556711888 GOKTURK 2 1 39030U 12073A 26106.70870660 .00000146 00000+0 28323-4 0 9999 2 39030 97.6862 307.2099 0001601 109.3054 250.8330 14.75481810715446 LANDSAT 8 1 39084U 13008A 26106.63442700 .00000203 00000+0 55068-4 0 9999 2 39084 98.1860 177.7244 0001183 95.4479 264.6855 14.57118591688933 SARAL 1 39086U 13009A 26106.65941110 .00000045 00000+0 32387-4 0 9996 2 39086 98.5565 294.0025 0002980 100.7350 259.4169 14.32840685686796 GAOFEN-1 1 39150U 13018A 26106.73354498 .00000093 00000+0 20517-4 0 9999 2 39150 97.9125 180.0414 0018610 102.8945 257.4345 14.76542875699177 VNREDSAT 1 1 39160U 13021B 26106.68146233 .00000509 00000+0 10354-3 0 9993 2 39160 97.9144 162.4400 0001294 84.7141 275.4210 14.64943302691286 ARIRANG-5 (KOMPSAT-5) 1 39227U 13042A 26106.71229973 .00000672 00000+0 52389-4 0 9993 2 39227 97.6218 294.2724 0003546 17.9831 342.1520 15.04480551694611 SKYSAT-A 1 39418U 13066C 26106.61027876 .00001896 00000+0 11158-3 0 9995 2 39418 97.3880 157.9661 0022117 163.3448 196.8514 15.12617384679171 DUBAISAT-2 1 39419U 13066D 26106.70531160 .00002073 00000+0 13228-3 0 9990 2 39419 97.4554 98.4882 0009551 240.9156 119.1117 15.09732769677110 GPM-CORE 1 39574U 14009C 26106.64786593 .00004583 00000+0 10343-3 0 9998 2 39574 64.9713 154.3321 0012476 258.3988 101.5752 15.44550273688304 SENTINEL-1A 1 39634U 14016A 26106.72180770 -.00000299 00000+0 -53773-4 0 9994 2 39634 98.1802 115.1464 0001411 85.7783 274.3578 14.59197516641052 KAZEOSAT 1 1 39731U 14024A 26106.68513699 .00000189 00000+0 70712-4 0 9994 2 39731 98.3234 180.6549 0001341 101.5586 258.5755 14.42055376629698 ALOS-2 1 39766U 14029A 26106.72850708 .00000033 00000+0 11251-4 0 9998 2 39766 97.9200 204.7730 0001857 90.8357 269.3068 14.79454053642497 KAZEOSAT 2 1 40010U 14033A 26106.72850023 .00000805 00000+0 99217-4 0 9992 2 40010 97.5458 309.5737 0009095 152.6242 207.5455 14.85398605639830 HODOYOSHI-4 1 40011U 14033B 26106.77525465 .00000038 00000+0 97619-5 0 9990 2 40011 97.5457 294.5669 0024405 146.0983 214.1800 14.87974470639670 DEIMOS-2 1 40013U 14033D 26106.68420794 .00001255 00000+0 12420-3 0 9998 2 40013 97.5924 343.3128 0001983 106.4838 253.6600 14.93555582628545 HODOYOSHI-3 1 40015U 14033F 26106.40938841 .00000741 00000+0 91704-4 0 9999 2 40015 97.6358 271.9622 0032588 195.6455 164.3757 14.85249171638451 SPOT 7 1 40053U 14034A 26106.67724837 .00000303 00000+0 71191-4 0 9991 2 40053 98.0680 170.7421 0001655 85.6346 274.5044 14.60904075628150 SKYSAT-B 1 40072U 14037D 26106.59361281 .00000832 00000+0 97612-4 0 9999 2 40072 98.3789 62.0760 0006839 112.4730 247.7210 14.87862950636800 WORLDVIEW-3 (WV-3) 1 40115U 14048A 26106.64690852 .00000509 00000+0 66097-4 0 9998 2 40115 97.8585 182.3282 0002514 124.6755 235.4697 14.84918627632774 GAOFEN-2 1 40118U 14049A 26106.68840616 .00000793 00000+0 10967-3 0 9990 2 40118 98.0160 170.9434 0008820 75.3033 284.9156 14.80828825630131 YAOGAN-21 1 40143U 14053A 26106.71705686 .00003060 00000+0 12347-3 0 9998 2 40143 97.1541 149.6120 0006838 319.4447 40.6282 15.25504839645583 YAOGAN-22 1 40275U 14063A 26106.66037093 -.00000023 00000+0 62993-4 0 9999 2 40275 100.7623 256.9326 0005937 333.2051 26.8753 13.15529180551729 ASNARO 1 40298U 14070A 26106.72066493 .00005435 00000+0 25910-3 0 9993 2 40298 97.3473 184.4821 0003819 48.0473 312.1087 15.19500484634678 YAOGAN-24 1 40310U 14072A 26106.73834347 .00000644 00000+0 10072-3 0 9992 2 40310 98.1379 243.5908 0015295 99.6210 260.6727 14.76141471614655 CBERS 4 1 40336U 14079A 26106.69976267 .00000191 00000+0 80837-4 0 9994 2 40336 98.3412 165.4816 0000871 135.0956 225.0301 14.35543183595134 YAOGAN-26 1 40362U 14088A 26106.71295130 .00008321 00000+0 17863-3 0 9990 2 40362 97.0660 108.4711 0001824 267.9965 92.1075 15.44942633628209 SMAP 1 40376U 15003A 26106.67848544 .00000246 00000+0 56594-4 0 9994 2 40376 98.1302 114.6383 0001910 84.7181 275.4239 14.63384280598622 KOMPSAT-3A 1 40536U 15014A 26106.68873590 .00021051 00000+0 33751-3 0 9990 2 40536 97.6893 93.6988 0061652 43.2862 317.3208 15.50897604612277 SENTINEL-2A 1 40697U 15028A 26106.67626454 .00000362 00000+0 15476-3 0 9993 2 40697 98.5636 182.4109 0001349 88.7225 271.4113 14.30821765564932 GAOFEN-8 1 40701U 15030A 26106.68193838 .00009273 00000+0 20668-3 0 9997 2 40701 97.6929 296.4587 0010051 61.7514 298.4746 15.43783134601958 CARBONITE 1 (CBNT-1) 1 40718U 15032D 26106.66801591 .00001411 00000+0 17785-3 0 9999 2 40718 97.6487 287.3252 0015623 132.7242 227.5290 14.83392556580220 YAOGAN-27 1 40878U 15040A 26106.67973674 -.00000379 00000+0 -88717-3 0 9995 2 40878 100.1132 95.7390 0008303 1.8273 358.2870 13.16066822509579 GAOFEN-9 01 1 40894U 15047A 26106.72291319 .00000561 00000+0 75281-4 0 9999 2 40894 97.6341 145.1946 0026873 345.0049 15.0366 14.82772767571081 YAOGAN-28 1 41026U 15064A 26106.72504979 .00004152 00000+0 16090-3 0 9997 2 41026 97.2976 246.3091 0011845 54.1928 306.0410 15.26632235581304 YAOGAN-29 1 41038U 15069A 26106.71329061 .00000618 00000+0 82638-4 0 9996 2 41038 98.0088 135.2353 0001109 153.3464 206.7806 14.83036284561516 KENT RIDGE 1 1 41167U 15077B 26106.07497465 .00002807 00000+0 85197-4 0 9996 2 41167 14.9808 7.7708 0008319 82.2298 277.8969 15.22751349571619 GAOFEN-4 1 41194U 15083A 26106.69280902 -.00000328 00000+0 00000+0 0 9999 2 41194 0.3477 82.5246 0003070 128.7838 348.6602 1.00272605 37918 JASON-3 1 41240U 16002A 26106.72107600 -.00000054 00000+0 31548-4 0 9992 2 41240 66.0406 255.0600 0007816 275.2834 84.7293 12.87628365479333 SENTINEL-3A 1 41335U 16011A 26106.71265295 .00000056 00000+0 41373-4 0 9999 2 41335 98.6282 174.9684 0001006 93.3888 266.7408 14.26736495529295 ZIYUAN 3-02 (ZY 3-02) 1 41556U 16033A 26106.69143532 .00003536 00000+0 15996-3 0 9991 2 41556 97.3855 183.6391 0014690 147.7776 212.4361 15.21472538548633 CARTOSAT-2C 1 41599U 16040A 26106.74102219 .00002431 00000+0 11876-3 0 9995 2 41599 97.4541 167.5448 0009313 355.4732 4.6417 15.19178529544384 SKYSAT-C1 1 41601U 16040C 26106.05656968 .00005072 00000+0 15031-3 0 9999 2 41601 96.9630 141.1712 0001204 195.1716 164.9493 15.35262784548333 LAPAN-A3 1 41603U 16040E 26106.69905076 .00002331 00000+0 76103-4 0 9991 2 41603 97.1494 104.8871 0008799 229.3061 130.7417 15.32701992545393 GAOFEN-3 1 41727U 16049A 26106.75387763 -.00000067 00000+0 -71536-5 0 9993 2 41727 98.4035 115.4620 0001383 65.5463 294.5871 14.42224512509798 SKYSAT-C4 1 41771U 16058B 26106.64786527 .00009569 00000+0 19316-3 0 9991 2 41771 96.9231 131.0654 0003512 109.2025 250.9606 15.46698139535959 SKYSAT-C5 1 41772U 16058C 26106.39527618 .00004625 00000+0 14364-3 0 9994 2 41772 97.0541 149.8112 0003601 145.2164 214.9316 15.33827004534278 SKYSAT-C2 1 41773U 16058D 26106.32499398 .00006649 00000+0 16487-3 0 9997 2 41773 97.0224 130.7957 0001115 268.0479 92.0640 15.40690322535527 SKYSAT-C3 1 41774U 16058E 26106.53827057 .00012239 00000+0 21969-3 0 9991 2 41774 96.9108 139.8364 0002461 107.2956 252.8566 15.50023724536552 ALSAT-1B 1 41785U 16059C 26106.73238006 .00000271 00000+0 50351-4 0 9997 2 41785 97.7779 118.1449 0010766 67.2411 292.9933 14.72226773511535 PATHFINDER 1 1 41787U 16059E 26106.50326714 .00000422 00000+0 82124-4 0 9999 2 41787 97.8182 108.5651 0029538 45.2156 315.1444 14.67585223510663 SCATSAT 1 1 41790U 16059H 26105.99085535 .00000706 00000+0 99630-4 0 9993 2 41790 98.1236 169.1089 0056118 88.7967 271.9672 14.79387012 92391 GOKTURK 1A 1 41875U 16073A 26106.68242563 .00000045 00000+0 18029-4 0 9995 2 41875 98.1322 2.2995 0001355 81.3600 278.7755 14.62786327499831 RESOURCESAT-2A 1 41877U 16074A 26106.69729610 .00000159 00000+0 92455-4 0 9993 2 41877 98.7552 180.6975 0001055 242.4800 117.6270 14.21615117485563 CARTOSAT-2D 1 41948U 17008A 26106.77405508 -.00000074 00000+0 -33721-6 0 9997 2 41948 97.4162 167.2073 0005831 95.9091 264.2808 15.19203476508251 SENTINEL-2B 1 42063U 17013A 26106.66901737 .00000356 00000+0 15251-3 0 9991 2 42063 98.5663 182.3177 0001249 92.3064 267.8262 14.30822291475846 CARTOSAT-2E 1 42767U 17036C 26106.79137444 -.00000049 00000+0 88349-6 0 9998 2 42767 97.4330 167.5868 0003906 148.0010 212.1462 15.19238234488823 FORMOSAT-5 1 42920U 17049A 26106.74391301 .00000094 00000+0 34883-4 0 9993 2 42920 98.2265 183.4149 0010138 271.5836 88.4198 14.50874336457764 SENTINEL-5P 1 42969U 17064A 26106.59687969 .00000021 00000+0 30756-4 0 9999 2 42969 98.7931 49.1706 0001277 84.5853 275.5469 14.19508189440828 SKYSAT-C11 1 42987U 17068A 26106.65240007 .00017265 00000+0 26129-3 0 9994 2 42987 97.4270 252.9861 0001161 154.5410 205.5901 15.54744849473673 SKYSAT-C10 1 42988U 17068B 26106.65236046 .00006137 00000+0 19170-3 0 9997 2 42988 97.4408 242.9853 0001351 115.1159 245.0224 15.33550912472928 SKYSAT-C9 1 42989U 17068C 26106.60691807 .00007737 00000+0 19552-3 0 9994 2 42989 97.4331 243.3064 0008376 7.6621 352.4751 15.40055576473277 SKYSAT-C8 1 42990U 17068D 26106.64904363 .00006898 00000+0 20080-3 0 9999 2 42990 97.4424 242.5540 0001105 104.6665 255.4701 15.35740673472865 SKYSAT-C7 1 42991U 17068E 26106.64034523 .00006688 00000+0 19505-3 0 9999 2 42991 97.4436 243.5309 0005243 337.7578 22.3437 15.35685763472924 SKYSAT-C6 1 42992U 17068F 26106.62766510 .00006036 00000+0 18969-3 0 9996 2 42992 97.4472 243.6889 0002637 32.3272 327.8131 15.33367633472882 CARTOSAT-2F 1 43111U 18004A 26106.42774544 .00003070 00000+0 14856-3 0 9991 2 43111 97.4094 166.8909 0002562 115.6600 244.4900 15.19318863457956 GAOFEN-1 02 1 43259U 18031A 26106.69483697 .00000183 00000+0 33799-4 0 9999 2 43259 98.0578 169.3783 0002698 178.3678 181.7540 14.76431645433629 GAOFEN-1 03 1 43260U 18031B 26106.74066230 .00000404 00000+0 65526-4 0 9996 2 43260 98.0564 169.2893 0001048 266.0103 94.0986 14.76418926433620 GAOFEN-1 04 1 43262U 18031D 26106.71653729 .00000058 00000+0 15810-4 0 9996 2 43262 98.0579 169.4480 0000792 67.4894 292.6400 14.76452189433612 SENTINEL-3B 1 43437U 18039A 26106.47538442 .00000063 00000+0 44261-4 0 9993 2 43437 98.6280 174.8824 0001666 100.7100 259.4268 14.26731043415320 GAOFEN-5 01 1 43461U 18043A 26106.68017293 .00000203 00000+0 51969-4 0 9993 2 43461 98.4527 76.9940 0000485 276.6843 83.4301 14.60561592422717 GAOFEN-6 1 43484U 18048A 26106.74396501 .00000626 00000+0 96662-4 0 9990 2 43484 97.7809 171.6662 0012582 21.1208 339.0520 14.76558841424322 GAOFEN-11 01 1 43585U 18063A 26106.69313800 .00011542 00000+0 18312-3 0 9998 2 43585 97.1341 173.8131 0004032 174.6765 185.4533 15.53516521430797 ICESAT-2 1 43613U 18070A 26106.67025487 .00001919 00000+0 69570-4 0 9997 2 43613 92.0008 274.3893 0003186 60.6959 299.4608 15.28264301423062 HYSIS 1 43719U 18096A 26106.69924819 .00000897 00000+0 12958-3 0 9992 2 43719 97.9883 173.9169 0001119 65.5432 294.5896 14.78652052398332 KAZSTSAT 1 43783U 18099AB 26105.65004866 .00001282 00000+0 10827-3 0 9994 2 43783 97.4378 140.3963 0003067 231.9654 128.1294 14.99749922401937 SAUDISAT 5A 1 43831U 18102A 26106.72659315 .00003404 00000+0 12941-3 0 9994 2 43831 97.3119 169.5045 0009482 2.2295 357.8985 15.27423050406299 SAUDISAT 5B 1 43833U 18102C 26106.69095102 .00003318 00000+0 12511-3 0 9997 2 43833 97.3221 172.4284 0010269 4.0049 356.1271 15.27711750406405 GAOFEN-10R 1 44622U 19066A 26106.75389605 .00000719 00000+0 95426-4 0 9994 2 44622 98.0452 59.9095 0005339 352.7780 7.3355 14.82920658353275 CARTOSAT-3 1 44804U 19081A 26106.70651904 .00002248 00000+0 10981-3 0 9993 2 44804 97.4360 169.5440 0012283 12.6402 347.5138 15.19228749354136 GAOFEN-12 01 1 44819U 19082A 26106.70880222 .00000246 00000+0 38809-4 0 9993 2 44819 97.8126 114.7088 0000912 126.1613 233.9683 14.80407874344998 CSG-1 1 44873U 19092A 26106.75176852 .00000255 00000+0 38646-4 0 9995 2 44873 97.8886 291.2421 0001210 89.5538 270.5814 14.82162067342370 NEMO-HD 1 46277U 20061F 26106.68874523 .00006219 00000+0 14133-3 0 9995 2 46277 97.1974 169.3033 0000899 120.7097 239.4239 15.43365156312492 SENTINEL-6A 1 46984U 20086A 26106.71782044 -.00000070 00000+0 -40723-4 0 9993 2 46984 66.0403 262.7241 0007739 270.4387 89.5741 12.80930908252455 GAOFEN-12 02 1 48079U 21026A 26106.71334868 .00000213 00000+0 34973-4 0 9999 2 48079 97.9928 105.1495 0006271 77.8811 282.3103 14.80245907272669 PLEIADES NEO 3 1 48268U 21034A 26106.73107113 -.00000227 00000+0 -22279-4 0 9994 2 48268 97.8936 182.3801 0001323 93.4288 266.7076 14.81672833268551 PLEIADES NEO 4 1 49070U 21073E 26106.69730779 .00000227 00000+0 35438-4 0 9993 2 49070 97.8935 182.3426 0001320 96.5273 263.6090 14.81675688252264 LANDSAT 9 1 49260U 21088A 26106.66891507 .00000207 00000+0 56005-4 0 9995 2 49260 98.1880 177.8291 0001162 101.5827 258.5502 14.57114409242041 CSG-2 1 51444U 22008A 26106.71801916 -.00000012 00000+0 50661-5 0 9994 2 51444 97.8879 291.2057 0001365 84.7119 275.4250 14.82156933227489 GAOFEN-12 03 1 52912U 22069A 26106.73115810 .00000629 00000+0 89943-4 0 9992 2 52912 97.8361 356.1311 0001733 50.7058 309.4307 14.79934946205520 SWOT 1 54754U 22173A 26106.68052565 .00000012 00000+0 98421-5 0 9993 2 54754 77.6076 118.3404 0000720 176.3958 183.7198 14.00169504170543 GAOFEN-12 04 1 57654U 23123A 26106.75551921 .00000615 00000+0 87954-4 0 9996 2 57654 97.9130 25.6593 0001239 83.7813 276.3540 14.80107560143549 PARS 1 1 59065U 24039Q 26106.72405086 .00007484 00000+0 16356-3 0 9996 2 59065 97.4792 85.7832 0008925 350.8791 9.2293 15.44445450119153 RESURS-P 4 1 59371U 24061A 26106.66761861 .00002846 00000+0 93909-4 0 9997 2 59371 97.2707 55.6742 0004944 64.5260 295.6493 15.32222477114348 LEGION 1 1 59625U 24081A 26106.67313392 .00002407 00000+0 12623-3 0 9990 2 59625 97.5032 185.1785 0008917 227.1347 132.9138 15.16694437108216 LEGION 2 1 59626U 24081B 26106.57622222 .00002450 00000+0 12757-3 0 9991 2 59626 97.5032 185.1685 0010388 198.3000 161.7861 15.16922397108207 ALOS-4 (DAICHI-4) 1 60182U 24123A 26106.74786135 .00000900 00000+0 12736-3 0 9995 2 60182 97.9199 204.7949 0001600 98.8781 261.2612 14.79481015 96797 LEGION 3 1 60452U 24146A 26106.70929131 .00002522 00000+0 14556-3 0 9995 2 60452 45.0032 0.1527 0009209 177.6582 182.4341 15.15245694 92695 LEGION 4 1 60453U 24146B 26106.64149235 .00002721 00000+0 15461-3 0 9995 2 60453 45.0010 92.3629 0015016 325.0879 34.9013 15.15523939 91539 SENTINEL-2C 1 60989U 24157A 26106.49421609 .00000060 00000+0 39461-4 0 9993 2 60989 98.5640 182.1598 0001390 107.7931 252.3404 14.30813782 84167 IONOSFERA-M 1 1 61735U 24199A 26106.72867933 .00000027 00000+0 31885-4 0 9994 2 61735 98.7260 340.5233 0000970 26.2552 333.8675 14.22742607118969 IONOSFERA-M 2 1 61736U 24199B 26106.62245785 .00000020 00000+0 28391-4 0 9990 2 61736 98.7258 340.3294 0001742 109.5636 250.5730 14.22745396122070 BIOMASS 1 63772U 25090A 26106.73583288 .00000747 00000+0 14197-3 0 9992 2 63772 98.0750 294.9420 0001222 89.1355 270.9989 14.66975055 51675 GOSAT-GW (IBUKI GW) 1 64694U 25141A 26106.75868311 .00000102 00000+0 26426-4 0 9992 2 64694 98.0541 45.0847 0001461 85.5201 274.6171 14.67557560 42830 IONOSFERA-M 3 1 64876U 25155A 26106.72582767 .00000017 00000+0 27213-4 0 9994 2 64876 98.5980 70.1956 0002280 59.6245 300.5158 14.21475454 37675 IONOSFERA-M 4 1 64877U 25155B 26106.69036762 .00000011 00000+0 24393-4 0 9990 2 64877 98.5978 70.0791 0001649 63.9851 296.1496 14.21477352 37661 MICROCARB 1 64899U 25156A 26106.16816786 .00000332 00000+0 60338-4 0 9994 2 64899 97.9842 184.4115 0017747 109.4422 250.8705 14.72258936 38846 CO3D 3 1 64900U 25156B 26106.70915994 .00002721 00000+0 12876-3 0 9995 2 64900 97.4328 186.2850 0001556 62.3797 297.7596 15.20208465 40197 CO3D 4 1 64901U 25156C 26106.11690841 .00000800 00000+0 40081-4 0 9998 2 64901 97.4328 185.7015 0001762 115.7581 244.3837 15.20193986 40106 CO3D 2 1 64902U 25156D 26106.61163041 .00424850 21991-5 72603-3 0 9998 2 64902 98.1251 184.6263 0453893 23.6482 338.4910 15.20035160 40179 CO3D 1 1 64903U 25156E 26103.64843334 .00003151 00000+0 12932-3 0 9997 2 64903 98.0928 182.3847 0110033 5.8142 354.4339 15.19681462 39726 SENTINEL-6B 1 66514U 25264A 26106.71816358 -.00000071 00000+0 -42564-4 0 9999 2 66514 66.0402 262.8495 0007902 269.8946 90.1163 12.80930760 19297 CSG-3 1 67304U 26001A 26106.76445257 .00000208 00000+0 32678-4 0 9993 2 67304 97.8885 291.2542 0001382 86.0926 274.0445 14.82148920 15367